Location: Grums
(59.3529°N, 13.1129°E)
Time: 08:21:20
(UTC+02:00)

Envisat - Pass Details

Date: 01 October 2021
Orbit: 764 x 766 km, 98.2° (Epoch: 26 October)

Event Time Altitude Azimuth Distance (km) Brightness Sun altitude
Rises 05:29:47 0° 20° (NNE) 3,248 6.8 -13.8°
Reaches altitude 10° 05:32:24 10° 31° (NNE) 2,317 6.2 -13.5°
Maximum altitude 05:36:49 29° 91° (E) 1,387 5.2 -12.9°
Drops below altitude 10° 05:41:13 10° 151° (SSE) 2,302 5.7 -12.4°
Sets 05:43:48 0° 163° (SSE) 3,223 6.3 -12.1°
